Regional Weather Roundup
Issued by NWS Charleston, SC

Current Version | Previous Version | Graphics & Text | Print | Product List | Glossary On
Versions: 1 2 3 4 5 6 7 8 9 10 11 12 13 14 15 16 17 18 19 20 21 22 23 24 25 26 27 28 29 30 31 32 33 34 35 36 37 38 39 40 41 42 43 44 45 46 47 48 49 50
000
ASUS42 KCHS 222327
RWRCHS

Regional Weather Roundup
National Weather Service Charleston SC
700 PM EDT SUN APR 22 2018

NOTE: "fair" indicates few or no clouds below 12,000 feet with no
significant weather and/or obstructions to visibility.

Not all stations are quality controlled. Use data with caution,
especially dewpoint observations.

SCZ027-030-031-034>040-042>050-230000-
...Southeast South Carolina...

CITY           SKY/WX    TMP DP  RH WIND       PRES   REMARKS
N Charleston   CLOUDY    68  54  60 E12       30.22S
Waterfront Prk NOT AVBL
Mount Pleasant MOCLDY    66  55  68 NE5       30.23R
Johns Island   CLOUDY    66  57  72 NE10G16   30.22S
Pinopolis        N/A     68  54  60 E7        30.14F
Moncks Corner  CLOUDY    66  50  55 E7        30.23S
Summerville    CLOUDY    68  50  52 E6        30.23S
Beaufort MCAS  CLOUDY    69  56  62 E12       30.19S
Beaufort Arpt  MOCLDY    66  55  68 E14       30.19S
Hilton Head Is NOT AVBL
Walterboro     CLOUDY    64  52  63 E9        30.22S
Allendale      CLOUDY    66  54  63 E6G15     30.19S

...Southern Midlands and Pee Dee...

CITY           SKY/WX    TMP DP  RH WIND       PRES   REMARKS
Georgetown     MOCLDY    63  61  94 E10G16    30.26S
Kingstree      CLOUDY    64  50  59 E8G16     30.25S
Orangeburg     LGT RAIN  65  52  62 E5        30.22S
Barnwell       CLOUDY    66  55  68 E9        30.20S
Aiken          CLOUDY    59  57  94 E9        30.23S
Manning        DRIZZLE   63  46  55 SE5       30.24S
Columbia       LGT RAIN  64  60  87 E6        30.22S
Sumter         PTSUNNY   64  54  68 E6        30.21S
Florence       FAIR      68  52  56 SE12      30.26S
Myrtle Beach   FAIR      63  53  70 E10       30.29S
N Myrtle Beach FAIR      64  51  62 E14G21    30.27F

$$

GAZ063-065-086>088-099>101-113>116-118-119-134>141-150-230000-
...Southeast Georgia...

CITY           SKY/WX    TMP DP  RH WIND       PRES   REMARKS
Savannah Arpt  CLOUDY    69  58  67 E15       30.17R
Hunter AAF     PTSUNNY   68  59  73 E13       30.14S
Fort Stewart   CLOUDY    69  58  68 E9        30.13S
Statesboro     CLOUDY    67  54  62 E7        30.17R
Sylvania       CLOUDY    66  57  72 E8G17     30.17F
Claxton        CLOUDY    69  60  73 NE6       30.15R

...CSRA, Central and far Southeast Georgia...

CITY           SKY/WX    TMP DP  RH WIND       PRES   REMARKS
Thomson        CLOUDY    60  59  95 S6        30.22S
Augusta-Bush   CLOUDY    64  60  87 SE5       30.17F
Augusta-Daniel CLOUDY    64  60  87 E5        30.18F
Swainsboro     CLOUDY    66  55  68 SE12G18   30.16R
Vidalia        CLOUDY    68  61  77 E8        30.14R
Eastman        LGT RAIN  69  54  58 SE10      30.12S
Hazlehurst     CLOUDY    70  58  66 E9G21     30.10R
Alma           CLOUDY    70  60  70 E8G17     30.10R
Waycross       CLOUDY    70  64  79 E12G23    30.10R
Jesup          NOT AVBL
Baxley         CLOUDY    68  59  73 E9        30.11R
Brunswick      CLOUDY    70  59  68 E13       30.13S
Saint Simons   CLOUDY    69  63  81 E10       30.12S

$$

SCZ027-028-034-036>038-045-046-048>050-GAZ119-141-230000-
...Lake and Supplemental Coastal Observations...

STATION/POSITION TIME  TEMP    WIND        PRES    WAVE   SWELL
                       AIR SEA DIR/SP/G            HT/PER HT/PER/DIR
                 (UTC) (F)     (DEG/KT/KT) (MB)    (FT/S) (FT/S/D)
Winyah Bay       2245   63      70/ 12     1025.0S
Lake Murray      2220   64      80/  6/  7 1022.7F
ACE Basin NERRS  2245   68     350/  4       N/A
Fort Pulaski     2300   66 65   70/ 13/ 16 1022.0
Sapelo Island    2300   69      90/  9     1020.0

$$

ANZ835-935-AMZ111-154-330-350-352-354-370-450-454-472-230000-
...C-MAN and Buoy Observations...

STATION/POSITION TIME  TEMP    WIND        PRES    WAVE   SWELL
                       AIR SEA DIR/SP/G            HT/PER HT/PER/DIR
                 (UTC) (F)     (DEG/KT/KT) (MB)    (FT/S) (FT/S/D)
Buoy 41004       2310   68 67  100/ 16/ 19 1022.9
Buoy 41008       2250   68 65  100/ 12/ 14 1020.6R   4/ 7   3/110/ 7
Folly Beach CMAN 2300   65      60/ 15/ 16 1023.7S
Capers Nearshore 2308   65 64   70/ 14/ 17 1023.8R
Fripp Nearshore  2308   65 64   70/ 14/ 19 1021.7S


STATION/POSITION TIME  TEMP    WIND        PRES    WAVE   SWELL
                       AIR SEA DIR/SP/G            HT/PER HT/PER/DIR
                 (UTC) (F)     (DEG/KT/KT) (MB)    (FT/S) (FT/S/D)
5E St. Marys GA  2300      67                N/A     4/ 8
Frying Pan Buoy  2310   67 70  100/ 16/ 19 1025.3
Buoy 41025       2310   65 74  100/ 12/ 16 1027.3
Cape Lookout NC  2300           50/ 15/ 17 1027.2R
Buoy 41002       2310   67 72  110/ 16/ 17 1024.5
Buoy 41010       2310   73 76   90/ 21/ 25 1020.1
St Augustine FL  2300   70 69  100/ 17/ 19 1017.9F


$$




USA.gov is the U.S. government's official web portal to all federal, state and local government web resources and services.